Time,TemperatureF,DewpointF,PressureIn,WindDirection,WindDirectionDegrees,WindSpeedMPH,WindSpeedGustMPH,Humidity,HourlyPrecipIn,Conditions,Clouds,dailyrainin,SoftwareType,DateUTC
2013-03-30 00:00:00,43.3,31.3,30.10,WSW,245,0.0,2.0,62,0.00,,,0.00,meteohub,2013-03-30 04:00:00,
2013-03-30 00:01:00,43.3,31.3,30.11,WSW,245,0.0,2.0,62,0.00,,,0.00,meteohub,2013-03-30 04:01:00,
2013-03-30 00:06:00,43.3,31.6,30.11,WSW,248,0.0,0.0,63,0.00,,,0.00,meteohub,2013-03-30 04:06:00,
2013-03-30 00:11:00,43.3,31.6,30.11,SW,224,0.0,1.0,63,0.00,,,0.00,meteohub,2013-03-30 04:11:00,
2013-03-30 00:17:00,43.3,31.6,30.11,WSW,238,0.0,1.0,63,0.00,,,0.00,meteohub,2013-03-30 04:17:00,
2013-03-30 00:22:00,43.2,31.5,30.11,WSW,242,0.0,1.0,63,0.00,,,0.00,meteohub,2013-03-30 04:22:00,
2013-03-30 00:27:00,43.0,31.6,30.11,WSW,250,0.0,1.0,64,0.00,,,0.00,meteohub,2013-03-30 04:27:00,
2013-03-30 00:32:00,42.8,31.5,30.11,SW,235,0.0,0.0,64,0.00,,,0.00,meteohub,2013-03-30 04:32:00,
2013-03-30 00:37:00,42.6,31.6,30.11,WSW,243,0.0,3.0,65,0.00,,,0.00,meteohub,2013-03-30 04:37:00,
2013-03-30 00:42:00,42.4,31.5,30.11,SW,214,0.0,3.0,65,0.00,,,0.00,meteohub,2013-03-30 04:42:00,
2013-03-30 00:47:00,42.3,31.6,30.11,SW,226,0.0,3.0,66,0.00,,,0.00,meteohub,2013-03-30 04:47:00,
2013-03-30 00:52:00,42.1,31.5,30.10,West,267,0.0,2.0,66,0.00,,,0.00,meteohub,2013-03-30 04:52:00,
2013-03-30 00:57:00,41.9,31.8,30.10,West,274,0.0,2.0,67,0.00,,,0.00,meteohub,2013-03-30 04:57:00,
2013-03-30 01:02:00,41.7,31.6,30.10,West,273,0.0,1.0,67,0.00,,,0.00,meteohub,2013-03-30 05:02:00,
2013-03-30 01:07:00,41.5,31.8,30.11,West,273,0.0,0.0,68,0.00,,,0.00,meteohub,2013-03-30 05:07:00,
2013-03-30 01:12:00,41.4,31.6,30.11,West,273,0.0,0.0,68,0.00,,,0.00,meteohub,2013-03-30 05:12:00,
2013-03-30 01:17:00,40.8,31.5,30.11,West,273,0.0,0.0,69,0.00,,,0.00,meteohub,2013-03-30 05:17:00,
2013-03-30 01:22:00,40.6,31.3,30.11,West,273,0.0,0.0,69,0.00,,,0.00,meteohub,2013-03-30 05:22:00,
2013-03-30 01:27:00,40.3,31.3,30.11,West,273,0.0,0.0,70,0.00,,,0.00,meteohub,2013-03-30 05:27:00,
2013-03-30 01:32:00,39.9,31.3,30.11,West,273,0.0,0.0,71,0.00,,,0.00,meteohub,2013-03-30 05:32:00,
2013-03-30 01:37:00,39.7,31.1,30.11,West,273,0.0,0.0,71,0.00,,,0.00,meteohub,2013-03-30 05:37:00,
2013-03-30 01:42:00,39.6,31.3,30.11,West,273,0.0,0.0,72,0.00,,,0.00,meteohub,2013-03-30 05:42:00,
2013-03-30 01:47:00,39.4,31.5,30.11,West,273,0.0,0.0,73,0.00,,,0.00,meteohub,2013-03-30 05:47:00,
2013-03-30 01:53:00,39.0,31.1,30.11,West,273,0.0,0.0,73,0.00,,,0.00,meteohub,2013-03-30 05:53:00,
2013-03-30 01:58:00,38.8,31.3,30.11,West,273,0.0,0.0,74,0.00,,,0.00,meteohub,2013-03-30 05:58:00,
2013-03-30 02:03:00,38.5,31.3,30.11,West,273,0.0,0.0,75,0.00,,,0.00,meteohub,2013-03-30 06:03:00,
2013-03-30 02:08:00,38.3,31.1,30.11,West,273,0.0,0.0,75,0.00,,,0.00,meteohub,2013-03-30 06:08:00,
2013-03-30 02:13:00,38.1,31.3,30.11,West,273,0.0,0.0,76,0.00,,,0.00,meteohub,2013-03-30 06:13:00,
2013-03-30 02:18:00,37.8,30.9,30.11,West,272,0.0,0.0,76,0.00,,,0.00,meteohub,2013-03-30 06:18:00,
2013-03-30 02:23:00,37.8,31.3,30.11,West,273,0.0,0.0,77,0.00,,,0.00,meteohub,2013-03-30 06:23:00,
2013-03-30 02:28:00,37.6,31.1,30.11,West,273,0.0,0.0,77,0.00,,,0.00,meteohub,2013-03-30 06:28:00,
2013-03-30 02:33:00,37.4,30.9,30.10,West,274,0.0,0.0,77,0.00,,,0.00,meteohub,2013-03-30 06:33:00,
2013-03-30 02:38:00,37.2,30.7,30.10,West,273,0.0,0.0,77,0.00,,,0.00,meteohub,2013-03-30 06:38:00,
2013-03-30 02:43:00,37.2,30.9,30.10,West,273,0.0,0.0,78,0.00,,,0.00,meteohub,2013-03-30 06:43:00,
2013-03-30 02:48:00,37.2,30.9,30.10,West,273,0.0,0.0,78,0.00,,,0.00,meteohub,2013-03-30 06:48:00,
2013-03-30 02:53:00,37.2,30.9,30.11,West,273,0.0,0.0,78,0.00,,,0.00,meteohub,2013-03-30 06:53:00,
2013-03-30 02:58:00,37.2,30.7,30.11,West,273,0.0,0.0,77,0.00,,,0.00,meteohub,2013-03-30 06:58:00,
2013-03-30 03:03:00,37.0,30.7,30.11,West,273,0.0,0.0,78,0.00,,,0.00,meteohub,2013-03-30 07:03:00,
2013-03-30 03:08:00,37.0,30.7,30.11,West,273,0.0,0.0,78,0.00,,,0.00,meteohub,2013-03-30 07:08:00,
2013-03-30 03:13:00,36.9,30.6,30.11,West,273,0.0,0.0,78,0.00,,,0.00,meteohub,2013-03-30 07:13:00,
2013-03-30 03:18:00,36.7,30.7,30.11,West,273,0.0,0.0,79,0.00,,,0.00,meteohub,2013-03-30 07:18:00,
2013-03-30 03:23:00,36.5,30.6,30.11,West,273,0.0,0.0,79,0.00,,,0.00,meteohub,2013-03-30 07:23:00,
2013-03-30 03:28:00,36.3,30.4,30.11,West,273,0.0,0.0,79,0.00,,,0.00,meteohub,2013-03-30 07:28:00,
2013-03-30 03:33:00,36.1,30.2,30.11,West,273,0.0,0.0,79,0.00,,,0.00,meteohub,2013-03-30 07:33:00,
2013-03-30 03:38:00,36.0,30.0,30.11,West,273,0.0,0.0,79,0.00,,,0.00,meteohub,2013-03-30 07:38:00,
2013-03-30 03:43:00,36.0,30.4,30.11,West,262,0.0,0.0,80,0.00,,,0.00,meteohub,2013-03-30 07:43:00,
2013-03-30 03:48:00,36.0,30.7,30.11,West,262,0.0,0.0,81,0.00,,,0.00,meteohub,2013-03-30 07:48:00,
2013-03-30 03:53:00,35.8,30.6,30.10,West,262,0.0,0.0,81,0.00,,,0.00,meteohub,2013-03-30 07:53:00,
2013-03-30 03:58:00,35.6,30.4,30.10,West,262,0.0,0.0,81,0.00,,,0.00,meteohub,2013-03-30 07:58:00,
2013-03-30 04:03:00,35.4,30.2,30.11,West,262,0.0,0.0,81,0.00,,,0.00,meteohub,2013-03-30 08:03:00,
2013-03-30 04:08:00,35.2,30.4,30.11,West,262,0.0,0.0,82,0.00,,,0.00,meteohub,2013-03-30 08:08:00,
2013-03-30 04:13:00,35.4,30.7,30.11,West,262,0.0,0.0,83,0.00,,,0.00,meteohub,2013-03-30 08:13:00,
2013-03-30 04:18:00,35.4,30.7,30.11,West,262,0.0,0.0,83,0.00,,,0.00,meteohub,2013-03-30 08:18:00,
2013-03-30 04:23:00,35.4,30.7,30.11,West,262,0.0,0.0,83,0.00,,,0.00,meteohub,2013-03-30 08:23:00,
2013-03-30 04:28:00,35.4,30.7,30.11,West,262,0.0,0.0,83,0.00,,,0.00,meteohub,2013-03-30 08:28:00,
2013-03-30 04:33:00,35.4,30.7,30.11,West,262,0.0,0.0,83,0.00,,,0.00,meteohub,2013-03-30 08:33:00,
2013-03-30 04:38:00,35.4,30.7,30.11,West,262,0.0,0.0,83,0.00,,,0.00,meteohub,2013-03-30 08:38:00,
2013-03-30 04:43:00,35.4,30.7,30.11,West,262,0.0,0.0,83,0.00,,,0.00,meteohub,2013-03-30 08:43:00,
2013-03-30 04:48:00,35.4,30.7,30.11,West,262,0.0,0.0,83,0.00,,,0.00,meteohub,2013-03-30 08:48:00,
2013-03-30 04:53:00,35.2,30.6,30.11,West,262,0.0,0.0,83,0.00,,,0.00,meteohub,2013-03-30 08:53:00,
2013-03-30 04:58:00,35.2,30.6,30.11,West,262,0.0,0.0,83,0.00,,,0.00,meteohub,2013-03-30 08:58:00,
2013-03-30 05:03:00,35.1,30.4,30.11,West,262,0.0,0.0,83,0.00,,,0.00,meteohub,2013-03-30 09:03:00,
2013-03-30 05:08:00,34.9,30.2,30.11,West,262,0.0,0.0,83,0.00,,,0.00,meteohub,2013-03-30 09:08:00,
2013-03-30 05:13:00,34.7,30.0,30.10,West,262,0.0,0.0,83,0.00,,,0.00,meteohub,2013-03-30 09:13:00,
2013-03-30 05:18:00,34.5,29.8,30.10,West,262,0.0,0.0,83,0.00,,,0.00,meteohub,2013-03-30 09:18:00,
2013-03-30 05:23:00,34.3,30.0,30.10,West,262,0.0,0.0,84,0.00,,,0.00,meteohub,2013-03-30 09:23:00,
2013-03-30 05:28:00,34.3,30.0,30.10,West,262,0.0,0.0,84,0.00,,,0.00,meteohub,2013-03-30 09:28:00,
2013-03-30 05:33:00,34.3,30.4,30.11,West,262,0.0,0.0,85,0.00,,,0.00,meteohub,2013-03-30 09:33:00,
2013-03-30 05:34:00,34.3,30.4,30.11,West,262,0.0,0.0,85,0.00,,,0.00,meteohub,2013-03-30 09:34:00,
2013-03-30 05:39:00,34.3,30.4,30.11,West,262,0.0,0.0,85,0.00,,,0.00,meteohub,2013-03-30 09:39:00,
2013-03-30 05:44:00,34.3,30.4,30.11,West,262,0.0,0.0,85,0.00,,,0.00,meteohub,2013-03-30 09:44:00,
2013-03-30 05:49:00,34.3,30.4,30.11,West,262,0.0,0.0,85,0.00,,,0.00,meteohub,2013-03-30 09:49:00,
2013-03-30 05:54:00,34.2,30.2,30.11,West,262,0.0,0.0,85,0.00,,,0.00,meteohub,2013-03-30 09:54:00,
2013-03-30 05:59:00,34.2,30.2,30.12,West,262,0.0,0.0,85,0.00,,,0.00,meteohub,2013-03-30 09:59:00,
2013-03-30 06:04:00,34.0,30.0,30.11,West,262,0.0,0.0,85,0.00,,,0.00,meteohub,2013-03-30 10:04:00,
2013-03-30 06:09:00,34.0,30.2,30.12,West,262,0.0,0.0,86,0.00,,,0.00,meteohub,2013-03-30 10:09:00,
2013-03-30 06:14:00,34.2,30.4,30.12,West,262,0.0,0.0,86,0.00,,,0.00,meteohub,2013-03-30 10:14:00,
2013-03-30 06:19:00,34.0,30.2,30.12,West,262,0.0,0.0,86,0.00,,,0.00,meteohub,2013-03-30 10:19:00,
2013-03-30 06:24:00,34.0,30.2,30.12,West,262,0.0,0.0,86,0.00,,,0.00,meteohub,2013-03-30 10:24:00,
2013-03-30 06:29:00,33.6,29.8,30.12,West,262,0.0,0.0,86,0.00,,,0.00,meteohub,2013-03-30 10:29:00,
2013-03-30 06:34:00,33.6,29.8,30.12,West,262,0.0,0.0,86,0.00,,,0.00,meteohub,2013-03-30 10:34:00,
2013-03-30 06:39:00,33.4,29.7,30.12,West,262,0.0,0.0,86,0.00,,,0.00,meteohub,2013-03-30 10:39:00,
2013-03-30 06:44:00,33.4,29.7,30.12,West,262,0.0,0.0,86,0.00,,,0.00,meteohub,2013-03-30 10:44:00,
2013-03-30 06:49:00,33.3,29.5,30.12,West,262,0.0,0.0,86,0.00,,,0.00,meteohub,2013-03-30 10:49:00,
2013-03-30 06:54:00,33.4,30.0,30.13,West,262,0.0,0.0,87,0.00,,,0.00,meteohub,2013-03-30 10:54:00,
2013-03-30 06:59:00,33.6,30.2,30.13,West,262,0.0,0.0,87,0.00,,,0.00,meteohub,2013-03-30 10:59:00,
2013-03-30 07:04:00,33.4,30.0,30.13,West,262,0.0,0.0,87,0.00,,,0.00,meteohub,2013-03-30 11:04:00,
2013-03-30 07:09:00,33.4,30.0,30.13,West,262,0.0,0.0,87,0.00,,,0.00,meteohub,2013-03-30 11:09:00,
2013-03-30 07:14:00,33.4,30.0,30.13,West,262,0.0,0.0,87,0.00,,,0.00,meteohub,2013-03-30 11:14:00,
2013-03-30 07:19:00,33.4,30.0,30.13,West,262,0.0,0.0,87,0.00,,,0.00,meteohub,2013-03-30 11:19:00,
2013-03-30 07:24:00,33.6,30.4,30.14,West,262,0.0,0.0,88,0.00,,,0.00,meteohub,2013-03-30 11:24:00,
2013-03-30 07:29:00,33.6,30.4,30.14,West,262,0.0,0.0,88,0.00,,,0.00,meteohub,2013-03-30 11:29:00,
2013-03-30 07:34:00,34.0,30.7,30.14,West,262,0.0,0.0,88,0.00,,,0.00,meteohub,2013-03-30 11:34:00,
2013-03-30 07:39:00,34.2,30.9,30.14,West,262,0.0,0.0,88,0.00,,,0.00,meteohub,2013-03-30 11:39:00,
2013-03-30 07:44:00,34.7,31.5,30.14,West,262,0.0,0.0,88,0.00,,,0.00,meteohub,2013-03-30 11:44:00,
2013-03-30 07:49:00,35.2,32.4,30.14,West,262,0.0,0.0,89,0.00,,,0.00,meteohub,2013-03-30 11:49:00,
2013-03-30 07:54:00,36.5,33.6,30.14,West,267,0.0,0.0,89,0.00,,,0.00,meteohub,2013-03-30 11:54:00,
2013-03-30 07:59:00,37.8,33.6,30.14,SW,228,0.0,0.0,85,0.00,,,0.00,meteohub,2013-03-30 11:59:00,
2013-03-30 08:04:00,38.8,33.8,30.14,WSW,250,1.0,0.0,82,0.00,,,0.00,meteohub,2013-03-30 12:04:00,
2013-03-30 08:09:00,39.6,33.6,30.14,West,274,0.0,0.0,79,0.00,,,0.00,meteohub,2013-03-30 12:09:00,
2013-03-30 08:14:00,40.3,33.6,30.14,West,263,0.0,2.0,77,0.00,,,0.00,meteohub,2013-03-30 12:14:00,
2013-03-30 08:19:00,40.8,33.4,30.14,WSW,255,3.0,3.0,75,0.00,,,0.00,meteohub,2013-03-30 12:19:00,
2013-03-30 08:24:00,41.5,33.6,30.14,SW,228,0.0,2.0,73,0.00,,,0.00,meteohub,2013-03-30 12:24:00,
2013-03-30 08:29:00,42.3,33.8,30.14,WSW,245,0.0,3.0,72,0.00,,,0.00,meteohub,2013-03-30 12:29:00,
2013-03-30 08:34:00,42.8,34.0,30.14,West,259,0.0,3.0,71,0.00,,,0.00,meteohub,2013-03-30 12:34:00,
2013-03-30 08:39:00,43.5,34.0,30.14,WSW,242,0.0,3.0,69,0.00,,,0.00,meteohub,2013-03-30 12:39:00,
2013-03-30 08:44:00,44.1,33.8,30.14,SW,226,2.0,3.0,67,0.00,,,0.00,meteohub,2013-03-30 12:44:00,
2013-03-30 08:49:00,44.4,34.2,30.14,WSW,239,0.0,1.0,67,0.00,,,0.00,meteohub,2013-03-30 12:49:00,
2013-03-30 08:54:00,45.3,34.7,30.14,SW,219,0.0,3.0,66,0.00,,,0.00,meteohub,2013-03-30 12:54:00,
2013-03-30 08:59:00,45.9,34.3,30.14,West,259,1.0,4.0,64,0.00,,,0.00,meteohub,2013-03-30 12:59:00,
2013-03-30 09:04:00,46.0,33.8,30.14,West,264,0.0,4.0,62,0.00,,,0.00,meteohub,2013-03-30 13:04:00,
2013-03-30 09:09:00,46.6,34.3,30.14,WSW,240,0.0,4.0,62,0.00,,,0.00,meteohub,2013-03-30 13:09:00,
2013-03-30 09:14:00,47.1,34.3,30.14,West,259,1.0,3.0,61,0.00,,,0.00,meteohub,2013-03-30 13:14:00,
2013-03-30 09:20:00,47.5,34.3,30.14,West,266,0.0,3.0,60,0.00,,,0.00,meteohub,2013-03-30 13:20:00,
2013-03-30 09:25:00,47.5,33.8,30.14,SW,222,0.0,2.0,59,0.00,,,0.00,meteohub,2013-03-30 13:25:00,
2013-03-30 09:30:00,47.8,34.2,30.14,NW,311,0.0,2.0,59,0.00,,,0.00,meteohub,2013-03-30 13:30:00,
2013-03-30 09:35:00,47.8,34.2,30.14,WSW,245,2.0,2.0,59,0.00,,,0.00,meteohub,2013-03-30 13:35:00,
2013-03-30 09:40:00,48.4,34.7,30.14,WSW,245,0.0,3.0,59,0.00,,,0.00,meteohub,2013-03-30 13:40:00,
2013-03-30 09:45:00,48.6,34.0,30.14,SW,216,1.0,3.0,57,0.00,,,0.00,meteohub,2013-03-30 13:45:00,
2013-03-30 09:50:00,48.4,34.7,30.15,SW,229,0.0,3.0,59,0.00,,,0.00,meteohub,2013-03-30 13:50:00,
2013-03-30 09:55:00,48.4,33.8,30.15,NW,311,0.0,3.0,57,0.00,,,0.00,meteohub,2013-03-30 13:55:00,
2013-03-30 10:00:00,48.7,34.2,30.15,West,269,1.0,3.0,57,0.00,,,0.00,meteohub,2013-03-30 14:00:00,
2013-03-30 10:05:00,48.9,33.1,30.14,West,262,1.0,3.0,54,0.00,,,0.00,meteohub,2013-03-30 14:05:00,
2013-03-30 10:10:00,48.7,33.3,30.14,North,351,0.0,4.0,55,0.00,,,0.00,meteohub,2013-03-30 14:10:00,
2013-03-30 10:15:00,48.7,33.3,30.14,WNW,285,0.0,5.0,55,0.00,,,0.00,meteohub,2013-03-30 14:15:00,
2013-03-30 10:20:00,48.9,33.1,30.14,West,269,0.0,5.0,54,0.00,,,0.00,meteohub,2013-03-30 14:20:00,
2013-03-30 10:25:00,49.1,33.3,30.14,ESE,108,1.0,2.0,54,0.00,,,0.00,meteohub,2013-03-30 14:25:00,
2013-03-30 10:30:00,49.3,34.7,30.14,WSW,238,3.0,4.0,57,0.00,,,0.00,meteohub,2013-03-30 14:30:00,
2013-03-30 10:35:00,49.6,33.6,30.14,WSW,248,1.0,4.0,54,0.00,,,0.00,meteohub,2013-03-30 14:35:00,
2013-03-30 10:40:00,49.6,34.2,30.14,SW,226,3.0,5.0,55,0.00,,,0.00,meteohub,2013-03-30 14:40:00,
2013-03-30 10:45:00,50.0,32.2,30.14,NNW,330,0.0,5.0,50,0.00,,,0.00,meteohub,2013-03-30 14:45:00,
2013-03-30 10:50:00,50.5,33.6,30.14,SW,229,2.0,4.0,52,0.00,,,0.00,meteohub,2013-03-30 14:50:00,
2013-03-30 10:55:00,51.1,32.5,30.14,West,271,1.0,4.0,49,0.00,,,0.00,meteohub,2013-03-30 14:55:00,
2013-03-30 11:00:00,51.3,31.6,30.14,NNW,329,0.0,3.0,47,0.00,,,0.00,meteohub,2013-03-30 15:00:00,
2013-03-30 11:05:00,51.6,33.6,30.14,North,354,0.0,3.0,50,0.00,,,0.00,meteohub,2013-03-30 15:05:00,
2013-03-30 11:10:00,52.0,31.3,30.14,WSW,253,1.0,3.0,45,0.00,,,0.00,meteohub,2013-03-30 15:10:00,
2013-03-30 11:15:00,52.3,31.1,30.13,South,186,1.0,4.0,44,0.00,,,0.00,meteohub,2013-03-30 15:15:00,
2013-03-30 11:20:00,52.5,29.5,30.13,NW,322,0.0,4.0,41,0.00,,,0.00,meteohub,2013-03-30 15:20:00,
2013-03-30 11:25:00,53.2,31.8,30.13,West,269,3.0,3.0,44,0.00,,,0.00,meteohub,2013-03-30 15:25:00,
2013-03-30 11:30:00,53.2,30.7,30.13,WNW,284,1.0,4.0,42,0.00,,,0.00,meteohub,2013-03-30 15:30:00,
2013-03-30 11:35:00,53.1,29.3,30.13,East,80,1.0,4.0,40,0.00,,,0.00,meteohub,2013-03-30 15:35:00,
2013-03-30 11:40:00,52.9,29.8,30.12,West,262,3.0,4.0,41,0.00,,,0.00,meteohub,2013-03-30 15:40:00,
2013-03-30 11:45:00,53.6,28.6,30.12,West,259,2.0,6.0,38,0.00,,,0.00,meteohub,2013-03-30 15:45:00,
2013-03-30 11:50:00,53.8,29.5,30.12,NW,321,1.0,6.0,39,0.00,,,0.00,meteohub,2013-03-30 15:50:00,
2013-03-30 11:55:00,53.8,28.0,30.12,SW,229,2.0,6.0,37,0.00,,,0.00,meteohub,2013-03-30 15:55:00,
2013-03-30 12:00:00,54.1,29.7,30.12,East,101,0.0,4.0,39,0.00,,,0.00,meteohub,2013-03-30 16:00:00,
2013-03-30 12:05:00,54.7,30.2,30.12,SW,219,5.0,5.0,39,0.00,,,0.00,meteohub,2013-03-30 16:05:00,
2013-03-30 12:10:00,54.5,29.5,30.12,East,101,6.0,7.0,38,0.00,,,0.00,meteohub,2013-03-30 16:10:00,
2013-03-30 12:15:00,54.1,27.1,30.12,WSW,253,2.0,7.0,35,0.00,,,0.00,meteohub,2013-03-30 16:15:00,
2013-03-30 12:20:00,54.3,28.6,30.12,WSW,240,1.0,7.0,37,0.00,,,0.00,meteohub,2013-03-30 16:20:00,
2013-03-30 12:25:00,54.3,29.3,30.12,WNW,297,0.0,6.0,38,0.00,,,0.00,meteohub,2013-03-30 16:25:00,
2013-03-30 12:30:00,55.0,28.6,30.12,SW,229,4.0,6.0,36,0.00,,,0.00,meteohub,2013-03-30 16:30:00,
2013-03-30 12:35:00,55.0,28.6,30.11,WSW,244,4.0,6.0,36,0.00,,,0.00,meteohub,2013-03-30 16:35:00,
2013-03-30 12:40:00,55.4,30.2,30.11,ENE,70,1.0,6.0,38,0.00,,,0.00,meteohub,2013-03-30 16:40:00,
2013-03-30 12:45:00,55.6,28.4,30.11,WSW,252,1.0,6.0,35,0.00,,,0.00,meteohub,2013-03-30 16:45:00,
2013-03-30 12:50:00,55.4,27.5,30.11,SSW,198,3.0,7.0,34,0.00,,,0.00,meteohub,2013-03-30 16:50:00,
2013-03-30 12:55:00,55.8,28.6,30.11,WSW,246,3.0,7.0,35,0.00,,,0.00,meteohub,2013-03-30 16:55:00,
2013-03-30 13:00:00,56.3,30.4,30.10,SW,229,5.0,5.0,37,0.00,,,0.00,meteohub,2013-03-30 17:00:00,
2013-03-30 13:05:00,56.5,29.8,30.10,WSW,238,2.0,5.0,36,0.00,,,0.00,meteohub,2013-03-30 17:05:00,
2013-03-30 13:11:00,56.1,28.8,30.10,SSE,158,0.0,8.0,35,0.00,,,0.00,meteohub,2013-03-30 17:11:00,
2013-03-30 13:16:00,55.9,30.7,30.09,West,271,3.0,8.0,38,0.00,,,0.00,meteohub,2013-03-30 17:16:00,
2013-03-30 13:21:00,55.9,28.8,30.09,NNE,20,0.0,8.0,35,0.00,,,0.00,meteohub,2013-03-30 17:21:00,
2013-03-30 13:26:00,55.2,30.0,30.09,SSW,207,2.0,4.0,38,0.00,,,0.00,meteohub,2013-03-30 17:26:00,
2013-03-30 13:31:00,56.1,30.9,30.09,ENE,66,1.0,5.0,38,0.00,,,0.00,meteohub,2013-03-30 17:31:00,
2013-03-30 13:36:00,57.2,30.6,30.09,WSW,245,1.0,5.0,36,0.00,,,0.00,meteohub,2013-03-30 17:36:00,
2013-03-30 13:41:00,57.0,29.7,30.08,WSW,239,1.0,4.0,35,0.00,,,0.00,meteohub,2013-03-30 17:41:00,
2013-03-30 13:46:00,57.4,30.6,30.08,WSW,246,1.0,5.0,36,0.00,,,0.00,meteohub,2013-03-30 17:46:00,
2013-03-30 13:51:00,57.9,30.4,30.08,WSW,251,2.0,5.0,35,0.00,,,0.00,meteohub,2013-03-30 17:51:00,
2013-03-30 13:56:00,57.9,29.7,30.07,West,281,1.0,5.0,34,0.00,,,0.00,meteohub,2013-03-30 17:56:00,
2013-03-30 14:01:00,57.9,31.1,30.07,WSW,245,2.0,4.0,36,0.00,,,0.00,meteohub,2013-03-30 18:01:00,
2013-03-30 14:06:00,58.1,29.8,30.07,WSW,242,2.0,4.0,34,0.00,,,0.00,meteohub,2013-03-30 18:06:00,
2013-03-30 14:11:00,58.3,28.6,30.07,West,268,4.0,6.0,32,0.00,,,0.00,meteohub,2013-03-30 18:11:00,
2013-03-30 14:16:00,58.5,29.5,30.07,NNW,327,1.0,6.0,33,0.00,,,0.00,meteohub,2013-03-30 18:16:00,
2013-03-30 14:22:00,57.9,29.7,30.06,WSW,256,0.0,6.0,34,0.00,,,0.00,meteohub,2013-03-30 18:22:00,
2013-03-30 14:27:00,58.3,30.0,30.06,East,79,1.0,5.0,34,0.00,,,0.00,meteohub,2013-03-30 18:27:00,
2013-03-30 14:32:00,58.6,29.7,30.06,SSW,207,1.0,5.0,33,0.00,,,0.00,meteohub,2013-03-30 18:32:00,
2013-03-30 14:37:00,59.2,29.3,30.06,West,266,2.0,5.0,32,0.00,,,0.00,meteohub,2013-03-30 18:37:00,
2013-03-30 14:42:00,58.5,29.5,30.06,WSW,246,3.0,9.0,33,0.00,,,0.00,meteohub,2013-03-30 18:42:00,
2013-03-30 14:47:00,58.6,31.1,30.06,West,271,0.0,9.0,35,0.00,,,0.00,meteohub,2013-03-30 18:47:00,
2013-03-30 14:52:00,58.8,28.2,30.06,North,356,1.0,9.0,31,0.00,,,0.00,meteohub,2013-03-30 18:52:00,
2013-03-30 14:57:00,59.0,30.0,30.06,NNE,20,0.0,4.0,33,0.00,,,0.00,meteohub,2013-03-30 18:57:00,
2013-03-30 15:02:00,59.2,28.6,30.06,WSW,238,1.0,4.0,31,0.00,,,0.00,meteohub,2013-03-30 19:02:00,
2013-03-30 15:07:00,59.2,29.3,30.06,West,266,1.0,5.0,32,0.00,,,0.00,meteohub,2013-03-30 19:07:00,
2013-03-30 15:12:00,59.0,29.1,30.06,NW,326,0.0,5.0,32,0.00,,,0.00,meteohub,2013-03-30 19:12:00,
2013-03-30 15:17:00,59.0,29.1,30.06,WSW,238,0.0,5.0,32,0.00,,,0.00,meteohub,2013-03-30 19:17:00,
2013-03-30 15:22:00,59.4,28.8,30.06,West,280,0.0,5.0,31,0.00,,,0.00,meteohub,2013-03-30 19:22:00,
2013-03-30 15:27:00,59.2,29.3,30.05,NNW,336,1.0,5.0,32,0.00,,,0.00,meteohub,2013-03-30 19:27:00,
2013-03-30 15:32:00,58.6,27.3,30.05,East,90,0.0,5.0,30,0.00,,,0.00,meteohub,2013-03-30 19:32:00,
2013-03-30 15:37:00,59.4,30.2,30.05,SW,236,3.0,4.0,33,0.00,,,0.00,meteohub,2013-03-30 19:37:00,
2013-03-30 15:42:00,59.4,26.2,30.05,NW,326,0.0,5.0,28,0.00,,,0.00,meteohub,2013-03-30 19:42:00,
2013-03-30 15:47:00,58.5,28.8,30.05,WSW,250,2.0,5.0,32,0.00,,,0.00,meteohub,2013-03-30 19:47:00,
2013-03-30 15:52:00,58.8,28.9,30.05,West,275,1.0,5.0,32,0.00,,,0.00,meteohub,2013-03-30 19:52:00,
2013-03-30 15:57:00,59.2,27.0,30.05,SW,231,1.0,4.0,29,0.00,,,0.00,meteohub,2013-03-30 19:57:00,
2013-03-30 16:02:00,58.5,26.2,30.05,WSW,248,1.0,4.0,29,0.00,,,0.00,meteohub,2013-03-30 20:02:00,
2013-03-30 16:07:00,57.9,27.5,30.05,West,281,1.0,4.0,31,0.00,,,0.00,meteohub,2013-03-30 20:07:00,
2013-03-30 16:12:00,57.9,27.5,30.04,East,89,0.0,3.0,31,0.00,,,0.00,meteohub,2013-03-30 20:12:00,
2013-03-30 16:17:00,58.3,26.2,30.05,WSW,255,0.0,3.0,29,0.00,,,0.00,meteohub,2013-03-30 20:17:00,
2013-03-30 16:23:00,58.3,26.2,30.04,West,269,0.0,5.0,29,0.00,,,0.00,meteohub,2013-03-30 20:23:00,
2013-03-30 16:28:00,58.5,27.1,30.04,SSW,205,0.0,5.0,30,0.00,,,0.00,meteohub,2013-03-30 20:28:00,
2013-03-30 16:33:00,58.6,25.7,30.04,WSW,239,1.0,5.0,28,0.00,,,0.00,meteohub,2013-03-30 20:33:00,
2013-03-30 16:38:00,58.8,25.7,30.04,WSW,250,0.0,3.0,28,0.00,,,0.00,meteohub,2013-03-30 20:38:00,
2013-03-30 16:43:00,58.6,23.9,30.04,West,261,1.0,5.0,26,0.00,,,0.00,meteohub,2013-03-30 20:43:00,
2013-03-30 16:48:00,58.5,25.5,30.04,West,266,1.0,5.0,28,0.00,,,0.00,meteohub,2013-03-30 20:48:00,
2013-03-30 16:53:00,57.7,24.8,30.04,WNW,283,0.0,5.0,28,0.00,,,0.00,meteohub,2013-03-30 20:53:00,
2013-03-30 16:58:00,57.9,25.0,30.04,West,262,1.0,5.0,28,0.00,,,0.00,meteohub,2013-03-30 20:58:00,
2013-03-30 17:03:00,58.1,25.2,30.04,WSW,257,3.0,5.0,28,0.00,,,0.00,meteohub,2013-03-30 21:03:00,
2013-03-30 17:08:00,57.9,24.1,30.04,West,259,2.0,4.0,27,0.00,,,0.00,meteohub,2013-03-30 21:08:00,
2013-03-30 17:13:00,57.7,24.8,30.04,ESE,106,0.0,4.0,28,0.00,,,0.00,meteohub,2013-03-30 21:13:00,
2013-03-30 17:18:00,57.7,24.8,30.04,East,84,1.0,4.0,28,0.00,,,0.00,meteohub,2013-03-30 21:18:00,
2013-03-30 17:23:00,58.5,24.6,30.04,WSW,250,1.0,2.0,27,0.00,,,0.00,meteohub,2013-03-30 21:23:00,
2013-03-30 17:28:00,58.5,24.6,30.04,SW,231,1.0,3.0,27,0.00,,,0.00,meteohub,2013-03-30 21:28:00,
2013-03-30 17:33:00,58.3,25.3,30.04,SW,230,1.0,3.0,28,0.00,,,0.00,meteohub,2013-03-30 21:33:00,
2013-03-30 17:38:00,58.1,25.2,30.04,West,277,0.0,4.0,28,0.00,,,0.00,meteohub,2013-03-30 21:38:00,
2013-03-30 17:43:00,57.7,25.7,30.04,West,278,0.0,4.0,29,0.00,,,0.00,meteohub,2013-03-30 21:43:00,
2013-03-30 17:48:00,57.6,26.4,30.04,WSW,246,3.0,4.0,30,0.00,,,0.00,meteohub,2013-03-30 21:48:00,
2013-03-30 17:53:00,57.6,25.5,30.04,West,266,2.0,5.0,29,0.00,,,0.00,meteohub,2013-03-30 21:53:00,
2013-03-30 17:58:00,57.6,25.5,30.05,WNW,291,0.0,5.0,29,0.00,,,0.00,meteohub,2013-03-30 21:58:00,
2013-03-30 18:03:00,57.6,25.5,30.05,NNW,328,1.0,5.0,29,0.00,,,0.00,meteohub,2013-03-30 22:03:00,
2013-03-30 18:08:00,57.2,24.4,30.05,NE,53,0.0,4.0,28,0.00,,,0.00,meteohub,2013-03-30 22:08:00,
2013-03-30 18:13:00,56.8,25.0,30.05,SW,223,0.0,5.0,29,0.00,,,0.00,meteohub,2013-03-30 22:13:00,
2013-03-30 18:18:00,56.3,25.3,30.05,SW,223,0.0,5.0,30,0.00,,,0.00,meteohub,2013-03-30 22:18:00,
2013-03-30 18:23:00,55.8,25.5,30.05,WSW,238,0.0,5.0,31,0.00,,,0.00,meteohub,2013-03-30 22:23:00,
2013-03-30 18:28:00,55.4,24.4,30.05,WSW,240,0.0,0.0,30,0.00,,,0.00,meteohub,2013-03-30 22:28:00,
2013-03-30 18:33:00,55.0,24.1,30.05,East,96,0.0,0.0,30,0.00,,,0.00,meteohub,2013-03-30 22:33:00,
2013-03-30 18:38:00,54.9,24.8,30.05,East,96,0.0,1.0,31,0.00,,,0.00,meteohub,2013-03-30 22:38:00,
2013-03-30 18:43:00,54.3,26.6,30.05,SW,229,0.0,1.0,34,0.00,,,0.00,meteohub,2013-03-30 22:43:00,
2013-03-30 18:48:00,54.0,24.1,30.05,SW,217,0.0,1.0,31,0.00,,,0.00,meteohub,2013-03-30 22:48:00,
2013-03-30 18:53:00,53.8,25.3,30.05,SSW,204,0.0,1.0,33,0.00,,,0.00,meteohub,2013-03-30 22:53:00,
2013-03-30 18:58:00,53.4,25.0,30.06,WSW,252,0.0,1.0,33,0.00,,,0.00,meteohub,2013-03-30 22:58:00,
2013-03-30 19:04:00,53.2,24.1,30.06,SW,226,0.0,0.0,32,0.00,,,0.00,meteohub,2013-03-30 23:04:00,
2013-03-30 19:09:00,53.1,25.3,30.06,SW,226,0.0,0.0,34,0.00,,,0.00,meteohub,2013-03-30 23:09:00,
2013-03-30 19:14:00,52.3,26.2,30.06,SW,227,0.0,0.0,36,0.00,,,0.00,meteohub,2013-03-30 23:14:00,
2013-03-30 19:19:00,52.0,25.9,30.06,SW,226,0.0,0.0,36,0.00,,,0.00,meteohub,2013-03-30 23:19:00,
2013-03-30 19:24:00,51.4,26.6,30.06,SW,227,0.0,0.0,38,0.00,,,0.00,meteohub,2013-03-30 23:24:00,
2013-03-30 19:29:00,51.1,28.8,30.07,SSE,163,0.0,0.0,42,0.00,,,0.00,meteohub,2013-03-30 23:29:00,
2013-03-30 19:34:00,50.5,30.6,30.07,West,276,1.0,0.0,46,0.00,,,0.00,meteohub,2013-03-30 23:34:00,
2013-03-30 19:39:00,50.0,31.1,30.07,WSW,241,0.0,3.0,48,0.00,,,0.00,meteohub,2013-03-30 23:39:00,
2013-03-30 19:44:00,49.6,31.8,30.07,WSW,245,0.0,3.0,50,0.00,,,0.00,meteohub,2013-03-30 23:44:00,
2013-03-30 19:49:00,49.3,32.0,30.07,WSW,245,0.0,3.0,51,0.00,,,0.00,meteohub,2013-03-30 23:49:00,
2013-03-30 19:54:00,48.7,31.8,30.07,WSW,245,0.0,3.0,52,0.00,,,0.00,meteohub,2013-03-30 23:54:00,
2013-03-30 19:59:00,48.4,32.0,30.07,WSW,245,0.0,0.0,53,0.00,,,0.00,meteohub,2013-03-30 23:59:00,
2013-03-30 20:04:00,47.8,32.5,30.07,WSW,245,0.0,0.0,55,0.00,,,0.00,meteohub,2013-03-31 00:04:00,
2013-03-30 20:09:00,47.5,32.2,30.08,WSW,245,0.0,0.0,55,0.00,,,0.00,meteohub,2013-03-31 00:09:00,
2013-03-30 20:14:00,47.1,32.2,30.08,West,280,0.0,0.0,56,0.00,,,0.00,meteohub,2013-03-31 00:14:00,
2013-03-30 20:19:00,46.9,32.5,30.08,West,280,0.0,0.0,57,0.00,,,0.00,meteohub,2013-03-31 00:19:00,
2013-03-30 20:24:00,46.8,32.4,30.08,West,280,0.0,0.0,57,0.00,,,0.00,meteohub,2013-03-31 00:24:00,
2013-03-30 20:29:00,46.4,32.4,30.09,West,281,0.0,0.0,58,0.00,,,0.00,meteohub,2013-03-31 00:29:00,
2013-03-30 20:34:00,46.2,32.2,30.09,West,280,0.0,0.0,58,0.00,,,0.00,meteohub,2013-03-31 00:34:00,
2013-03-30 20:39:00,45.9,32.4,30.09,West,280,0.0,0.0,59,0.00,,,0.00,meteohub,2013-03-31 00:39:00,
2013-03-30 20:44:00,45.3,32.2,30.09,West,280,0.0,0.0,60,0.00,,,0.00,meteohub,2013-03-31 00:44:00,
2013-03-30 20:49:00,45.1,32.5,30.09,West,280,0.0,0.0,61,0.00,,,0.00,meteohub,2013-03-31 00:49:00,
2013-03-30 20:54:00,44.8,32.5,30.09,West,280,0.0,0.0,62,0.00,,,0.00,meteohub,2013-03-31 00:54:00,
2013-03-30 20:59:00,44.4,32.2,30.09,West,280,0.0,0.0,62,0.00,,,0.00,meteohub,2013-03-31 00:59:00,
2013-03-30 21:04:00,44.2,32.4,30.09,West,281,0.0,0.0,63,0.00,,,0.00,meteohub,2013-03-31 01:04:00,
2013-03-30 21:09:00,43.9,32.5,30.09,West,280,0.0,0.0,64,0.00,,,0.00,meteohub,2013-03-31 01:09:00,
2013-03-30 21:14:00,43.9,32.9,30.09,West,280,0.0,0.0,65,0.00,,,0.00,meteohub,2013-03-31 01:14:00,
2013-03-30 21:19:00,43.7,32.7,30.09,West,280,0.0,0.0,65,0.00,,,0.00,meteohub,2013-03-31 01:19:00,
2013-03-30 21:25:00,43.3,32.4,30.09,West,280,0.0,0.0,65,0.00,,,0.00,meteohub,2013-03-31 01:25:00,
2013-03-30 21:30:00,43.2,32.5,30.09,West,280,0.0,0.0,66,0.00,,,0.00,meteohub,2013-03-31 01:30:00,
2013-03-30 21:35:00,43.0,32.7,30.09,West,280,0.0,0.0,67,0.00,,,0.00,meteohub,2013-03-31 01:35:00,
2013-03-30 21:40:00,42.6,32.4,30.09,West,280,0.0,0.0,67,0.00,,,0.00,meteohub,2013-03-31 01:40:00,
2013-03-30 21:45:00,42.4,32.7,30.09,West,280,0.0,0.0,68,0.00,,,0.00,meteohub,2013-03-31 01:45:00,
2013-03-30 21:50:00,42.3,32.9,30.09,West,280,0.0,0.0,69,0.00,,,0.00,meteohub,2013-03-31 01:50:00,
2013-03-30 21:55:00,41.9,32.9,30.10,West,280,0.0,0.0,70,0.00,,,0.00,meteohub,2013-03-31 01:55:00,
2013-03-30 22:00:00,41.7,32.7,30.09,West,280,0.0,0.0,70,0.00,,,0.00,meteohub,2013-03-31 02:00:00,
2013-03-30 22:05:00,41.5,32.9,30.10,West,280,0.0,0.0,71,0.00,,,0.00,meteohub,2013-03-31 02:05:00,
2013-03-30 22:10:00,41.4,33.1,30.10,West,280,0.0,0.0,72,0.00,,,0.00,meteohub,2013-03-31 02:10:00,
2013-03-30 22:15:00,41.2,32.9,30.10,West,280,0.0,0.0,72,0.00,,,0.00,meteohub,2013-03-31 02:15:00,
2013-03-30 22:20:00,40.8,32.9,30.10,West,280,0.0,0.0,73,0.00,,,0.00,meteohub,2013-03-31 02:20:00,
2013-03-30 22:25:00,40.6,33.1,30.10,West,280,0.0,0.0,74,0.00,,,0.00,meteohub,2013-03-31 02:25:00,
2013-03-30 22:30:00,40.5,32.9,30.10,West,280,0.0,0.0,74,0.00,,,0.00,meteohub,2013-03-31 02:30:00,
2013-03-30 22:35:00,40.3,33.1,30.10,West,280,0.0,0.0,75,0.00,,,0.00,meteohub,2013-03-31 02:35:00,
2013-03-30 22:40:00,40.1,32.9,30.10,West,280,0.0,0.0,75,0.00,,,0.00,meteohub,2013-03-31 02:40:00,
2013-03-30 22:45:00,39.9,32.9,30.10,West,280,0.0,0.0,76,0.00,,,0.00,meteohub,2013-03-31 02:45:00,
2013-03-30 22:50:00,39.9,33.3,30.10,West,280,0.0,0.0,77,0.00,,,0.00,meteohub,2013-03-31 02:50:00,
2013-03-30 22:55:00,39.7,33.1,30.10,West,280,0.0,0.0,77,0.00,,,0.00,meteohub,2013-03-31 02:55:00,
2013-03-30 23:00:00,39.6,32.9,30.10,West,280,0.0,0.0,77,0.00,,,0.00,meteohub,2013-03-31 03:00:00,
2013-03-30 23:05:00,39.4,32.7,30.10,West,280,0.0,0.0,77,0.00,,,0.00,meteohub,2013-03-31 03:05:00,
2013-03-30 23:10:00,39.0,32.4,30.10,West,280,0.0,0.0,77,0.00,,,0.00,meteohub,2013-03-31 03:10:00,
2013-03-30 23:16:00,38.8,32.5,30.10,West,280,0.0,0.0,78,0.00,,,0.00,meteohub,2013-03-31 03:16:00,
2013-03-30 23:21:00,38.8,32.5,30.10,West,280,0.0,0.0,78,0.00,,,0.00,meteohub,2013-03-31 03:21:00,
2013-03-30 23:26:00,38.7,32.7,30.11,West,280,0.0,0.0,79,0.00,,,0.00,meteohub,2013-03-31 03:26:00,
2013-03-30 23:31:00,38.5,32.5,30.11,West,280,0.0,0.0,79,0.00,,,0.00,meteohub,2013-03-31 03:31:00,
2013-03-30 23:36:00,38.5,32.9,30.11,West,280,0.0,0.0,80,0.00,,,0.00,meteohub,2013-03-31 03:36:00,
2013-03-30 23:41:00,38.5,32.9,30.11,West,280,0.0,0.0,80,0.00,,,0.00,meteohub,2013-03-31 03:41:00,
2013-03-30 23:46:00,38.1,32.7,30.11,West,280,0.0,0.0,81,0.00,,,0.00,meteohub,2013-03-31 03:46:00,
2013-03-30 23:51:00,38.1,32.7,30.11,West,280,0.0,0.0,81,0.00,,,0.00,meteohub,2013-03-31 03:51:00,
2013-03-30 23:56:00,37.9,32.7,30.11,West,280,0.0,0.0,81,0.00,,,0.00,meteohub,2013-03-31 03:56:00,